Retour au catalogue

TITAN 3C TRANSTAGE DEB

ActifLEO
NORAD 1671·DEBRIS·🇺🇸 United States

Lancé Oct 15, 1965 depuis Cape Canaveral Space Force Station

Loading…

Prochains Passages (prochaines 24 heures)

TLE

FraisSource: Space-Track

Époque: Sep 14, 2026, 08:30 UTC

1 01671U 65082AJ  26257.35462341  .00000361  00000-0  74436-4 0  9994
2 01671  32.1604 253.0557 0052179 303.8397  55.7287 14.54055047199386

Suivez TITAN 3C TRANSTAGE DEB en temps réel avec AllMySat

Download on the App Store